Time,TemperatureF,DewpointF,PressureIn,WindDirection,WindDirectionDegrees,WindSpeedMPH,WindSpeedGustMPH,Humidity,HourlyPrecipIn,Conditions,Clouds,dailyrainin,SolarRadiationWatts/m^2,SoftwareType,DateUTC
2013-04-21 00:01:00,43.0,36.0,-100.00,WNW,286,10.0,18.0,75,0.00,,,0.00,0.000000,,2013-04-21 06:01:00,
2013-04-21 00:12:00,43.0,36.0,-100.00,WNW,286,10.0,18.0,75,0.00,,,0.00,0.000000,,2013-04-21 06:12:00,
2013-04-21 00:42:00,39.0,36.0,-100.00,WNW,293,7.0,15.0,89,0.04,,,0.04,0.000000,,2013-04-21 06:42:00,
2013-04-21 00:52:00,39.0,36.0,-100.00,WNW,293,7.0,15.0,89,0.04,,,0.04,0.000000,,2013-04-21 06:52:00,
2013-04-21 01:01:00,39.0,36.0,-100.00,WNW,293,7.0,15.0,89,0.04,,,0.04,0.000000,,2013-04-21 07:01:00,
2013-04-21 01:12:00,39.0,36.0,-100.00,WNW,293,7.0,15.0,89,0.04,,,0.04,0.000000,,2013-04-21 07:12:00,
2013-04-21 01:32:00,38.0,36.0,-100.00,WNW,283,4.0,23.0,93,0.09,,,0.13,0.000000,,2013-04-21 07:32:00,
2013-04-21 01:42:00,38.0,36.0,-100.00,WNW,283,4.0,23.0,93,0.09,,,0.13,0.000000,,2013-04-21 07:42:00,
2013-04-21 01:52:00,38.0,36.0,-100.00,WNW,283,4.0,23.0,93,0.09,,,0.13,0.000000,,2013-04-21 07:52:00,
2013-04-21 02:01:00,38.0,36.0,-100.00,WNW,283,4.0,23.0,93,0.09,,,0.13,0.000000,,2013-04-21 08:01:00,
2013-04-21 02:12:00,38.0,36.0,-100.00,WNW,283,4.0,23.0,93,0.09,,,0.13,0.000000,,2013-04-21 08:12:00,
2013-04-21 02:42:00,36.0,35.0,-100.00,NW,321,4.0,10.0,95,0.00,,,0.13,0.000000,,2013-04-21 08:42:00,
2013-04-21 02:52:00,36.0,35.0,-100.00,NW,321,4.0,10.0,95,0.00,,,0.13,0.000000,,2013-04-21 08:52:00,
2013-04-21 03:01:00,36.0,35.0,-100.00,NW,321,4.0,10.0,95,0.00,,,0.13,0.000000,,2013-04-21 09:01:00,
2013-04-21 03:12:00,36.0,35.0,-100.00,NW,321,4.0,10.0,95,0.00,,,0.13,0.000000,,2013-04-21 09:12:00,
2013-04-21 03:33:00,38.0,35.0,-100.00,SW,226,7.0,13.0,89,0.01,,,0.14,0.000000,,2013-04-21 09:33:00,
2013-04-21 03:43:00,38.0,35.0,-100.00,SW,226,7.0,13.0,89,0.01,,,0.14,0.000000,,2013-04-21 09:43:00,
2013-04-21 03:53:00,38.0,35.0,-100.00,SW,226,7.0,13.0,89,0.01,,,0.14,0.000000,,2013-04-21 09:53:00,
2013-04-21 04:03:00,38.0,35.0,-100.00,SW,226,7.0,13.0,89,0.01,,,0.14,0.000000,,2013-04-21 10:03:00,
2013-04-21 04:12:00,38.0,35.0,-100.00,SW,226,7.0,13.0,89,0.01,,,0.14,0.000000,,2013-04-21 10:12:00,
2013-04-21 04:33:00,36.0,34.0,-100.00,SSE,159,3.0,10.0,93,0.00,,,0.14,0.000000,,2013-04-21 10:33:00,
2013-04-21 04:42:00,36.0,34.0,-100.00,SSE,159,3.0,10.0,93,0.00,,,0.14,0.000000,,2013-04-21 10:42:00,
2013-04-21 04:52:00,36.0,34.0,-100.00,SSE,159,3.0,10.0,93,0.00,,,0.14,0.000000,,2013-04-21 10:52:00,
2013-04-21 05:02:00,36.0,34.0,-100.00,SSE,159,3.0,10.0,93,0.00,,,0.14,0.000000,,2013-04-21 11:02:00,
2013-04-21 05:12:00,36.0,34.0,-100.00,SSE,159,3.0,10.0,93,0.00,,,0.14,0.000000,,2013-04-21 11:12:00,
2013-04-21 05:42:00,39.0,33.0,-100.00,West,273,7.0,12.0,80,0.00,,,0.14,0.000000,,2013-04-21 11:42:00,
2013-04-21 05:52:00,39.0,33.0,-100.00,West,273,7.0,12.0,80,0.00,,,0.14,0.000000,,2013-04-21 11:52:00,
2013-04-21 06:02:00,39.0,33.0,-100.00,West,273,7.0,12.0,80,0.00,,,0.14,0.000000,,2013-04-21 12:02:00,
2013-04-21 06:12:00,39.0,33.0,-100.00,West,273,7.0,12.0,80,0.00,,,0.14,0.000000,,2013-04-21 12:12:00,
2013-04-21 06:32:00,40.0,34.0,-100.00,WNW,288,9.0,17.0,78,0.00,,,0.14,1.000000,,2013-04-21 12:32:00,
2013-04-21 06:42:00,40.0,34.0,-100.00,WNW,288,9.0,17.0,78,0.00,,,0.14,1.000000,,2013-04-21 12:42:00,
2013-04-21 06:52:00,40.0,34.0,-100.00,WNW,288,9.0,17.0,78,0.00,,,0.14,1.000000,,2013-04-21 12:52:00,
2013-04-21 07:01:00,40.0,34.0,-100.00,WNW,288,9.0,17.0,78,0.00,,,0.14,1.000000,,2013-04-21 13:01:00,
2013-04-21 07:12:00,40.0,34.0,-100.00,WNW,288,9.0,17.0,78,0.00,,,0.14,1.000000,,2013-04-21 13:12:00,
2013-04-21 07:32:00,42.0,34.0,-100.00,West,277,8.0,14.0,74,0.00,,,0.14,31.000000,,2013-04-21 13:32:00,
2013-04-21 07:42:00,42.0,34.0,-100.00,West,277,8.0,14.0,74,0.00,,,0.14,31.000000,,2013-04-21 13:42:00,
2013-04-21 07:52:00,42.0,34.0,-100.00,West,277,8.0,14.0,74,0.00,,,0.14,31.000000,,2013-04-21 13:52:00,
2013-04-21 08:02:00,42.0,34.0,-100.00,West,277,8.0,14.0,74,0.00,,,0.14,31.000000,,2013-04-21 14:02:00,
2013-04-21 08:11:00,42.0,34.0,-100.00,West,277,8.0,14.0,74,0.00,,,0.14,31.000000,,2013-04-21 14:11:00,
2013-04-21 08:32:00,42.0,34.0,-100.00,West,260,8.0,13.0,73,0.00,,,0.14,112.000000,,2013-04-21 14:32:00,
2013-04-21 08:42:00,42.0,34.0,-100.00,West,260,8.0,13.0,73,0.00,,,0.14,112.000000,,2013-04-21 14:42:00,
2013-04-21 08:52:00,42.0,34.0,-100.00,West,260,8.0,13.0,73,0.00,,,0.14,112.000000,,2013-04-21 14:52:00,
2013-04-21 09:02:00,42.0,34.0,-100.00,West,260,8.0,13.0,73,0.00,,,0.14,112.000000,,2013-04-21 15:02:00,
2013-04-21 09:11:00,42.0,34.0,-100.00,West,260,8.0,13.0,73,0.00,,,0.14,112.000000,,2013-04-21 15:11:00,
2013-04-21 09:33:00,43.0,34.0,-100.00,West,275,4.0,11.0,71,0.00,,,0.14,156.000000,,2013-04-21 15:33:00,
2013-04-21 09:43:00,43.0,34.0,-100.00,West,275,4.0,11.0,71,0.00,,,0.14,156.000000,,2013-04-21 15:43:00,
2013-04-21 09:53:00,43.0,34.0,-100.00,West,275,4.0,11.0,71,0.00,,,0.14,156.000000,,2013-04-21 15:53:00,
2013-04-21 10:03:00,43.0,34.0,-100.00,West,275,4.0,11.0,71,0.00,,,0.14,156.000000,,2013-04-21 16:03:00,
2013-04-21 10:12:00,43.0,34.0,-100.00,West,275,4.0,11.0,71,0.00,,,0.14,156.000000,,2013-04-21 16:12:00,
2013-04-21 10:42:00,48.0,38.0,-100.00,ENE,71,6.0,9.0,67,0.00,,,0.14,383.000000,,2013-04-21 16:42:00,
2013-04-21 10:53:00,48.0,38.0,-100.00,ENE,71,6.0,9.0,67,0.00,,,0.14,383.000000,,2013-04-21 16:53:00,
2013-04-21 11:02:00,48.0,38.0,-100.00,ENE,71,6.0,9.0,67,0.00,,,0.14,383.000000,,2013-04-21 17:02:00,
2013-04-21 11:12:00,48.0,38.0,-100.00,ENE,71,6.0,9.0,67,0.00,,,0.14,383.000000,,2013-04-21 17:12:00,
2013-04-21 11:32:00,49.0,37.0,-100.00,ENE,71,6.0,12.0,63,0.00,,,0.14,550.000000,,2013-04-21 17:32:00,
2013-04-21 11:42:00,49.0,37.0,-100.00,ENE,71,6.0,12.0,63,0.00,,,0.14,550.000000,,2013-04-21 17:42:00,
2013-04-21 11:52:00,49.0,37.0,-100.00,ENE,71,6.0,12.0,63,0.00,,,0.14,550.000000,,2013-04-21 17:52:00,
2013-04-21 12:02:00,49.0,37.0,-100.00,ENE,71,6.0,12.0,63,0.00,,,0.14,550.000000,,2013-04-21 18:02:00,
2013-04-21 12:11:00,49.0,37.0,-100.00,ENE,71,6.0,12.0,63,0.00,,,0.14,550.000000,,2013-04-21 18:11:00,
2013-04-21 12:33:00,47.0,38.0,-100.00,ESE,116,7.0,12.0,71,0.00,,,0.14,545.000000,,2013-04-21 18:33:00,
2013-04-21 12:42:00,47.0,38.0,-100.00,ESE,116,7.0,12.0,71,0.00,,,0.14,545.000000,,2013-04-21 18:42:00,
2013-04-21 12:52:00,47.0,38.0,-100.00,ESE,116,7.0,12.0,71,0.00,,,0.14,545.000000,,2013-04-21 18:52:00,
2013-04-21 13:02:00,47.0,38.0,-100.00,ESE,116,7.0,12.0,71,0.00,,,0.14,545.000000,,2013-04-21 19:02:00,
2013-04-21 13:12:00,47.0,38.0,-100.00,ESE,116,7.0,12.0,71,0.00,,,0.14,545.000000,,2013-04-21 19:12:00,
2013-04-21 13:32:00,46.0,37.0,-100.00,ENE,71,10.0,16.0,71,0.00,,,0.14,506.000000,,2013-04-21 19:32:00,
2013-04-21 13:43:00,46.0,37.0,-100.00,ENE,71,10.0,16.0,71,0.00,,,0.14,506.000000,,2013-04-21 19:43:00,
2013-04-21 13:52:00,46.0,37.0,-100.00,ENE,71,10.0,16.0,71,0.00,,,0.14,506.000000,,2013-04-21 19:52:00,
2013-04-21 14:02:00,46.0,37.0,-100.00,ENE,71,10.0,16.0,71,0.00,,,0.14,506.000000,,2013-04-21 20:02:00,
2013-04-21 14:11:00,46.0,37.0,-100.00,ENE,71,10.0,16.0,71,0.00,,,0.14,506.000000,,2013-04-21 20:11:00,
2013-04-21 14:42:00,41.0,39.0,-100.00,NE,37,9.0,18.0,93,0.07,,,0.21,282.000000,,2013-04-21 20:42:00,
2013-04-21 14:52:00,41.0,39.0,-100.00,NE,37,9.0,18.0,93,0.07,,,0.21,282.000000,,2013-04-21 20:52:00,
2013-04-21 15:02:00,41.0,39.0,-100.00,NE,37,9.0,18.0,93,0.07,,,0.21,282.000000,,2013-04-21 21:02:00,
2013-04-21 15:12:00,41.0,39.0,-100.00,NE,37,9.0,18.0,93,0.07,,,0.21,282.000000,,2013-04-21 21:12:00,
2013-04-21 15:43:00,38.0,36.0,-100.00,NNE,27,14.0,20.0,94,0.00,,,0.21,319.000000,,2013-04-21 21:43:00,
2013-04-21 15:53:00,38.0,36.0,-100.00,NNE,27,14.0,20.0,94,0.00,,,0.21,319.000000,,2013-04-21 21:53:00,
2013-04-21 16:02:00,38.0,36.0,-100.00,NNE,27,14.0,20.0,94,0.00,,,0.21,319.000000,,2013-04-21 22:02:00,
2013-04-21 16:12:00,38.0,36.0,-100.00,NNE,27,14.0,20.0,94,0.00,,,0.21,319.000000,,2013-04-21 22:12:00,
2013-04-21 16:33:00,35.0,34.0,-100.00,North,5,10.0,19.0,96,0.06,,,0.27,61.000000,,2013-04-21 22:33:00,
2013-04-21 16:43:00,35.0,34.0,-100.00,North,5,10.0,19.0,96,0.06,,,0.27,61.000000,,2013-04-21 22:43:00,
2013-04-21 16:52:00,35.0,34.0,-100.00,North,5,10.0,19.0,96,0.06,,,0.27,61.000000,,2013-04-21 22:52:00,
2013-04-21 17:02:00,35.0,34.0,-100.00,North,5,10.0,19.0,96,0.06,,,0.27,61.000000,,2013-04-21 23:02:00,
2013-04-21 17:12:00,35.0,34.0,-100.00,North,5,10.0,19.0,96,0.06,,,0.27,61.000000,,2013-04-21 23:12:00,
2013-04-21 17:32:00,35.0,33.0,-100.00,NNE,16,13.0,20.0,94,0.00,,,0.27,124.000000,,2013-04-21 23:32:00,
2013-04-21 17:43:00,35.0,33.0,-100.00,NNE,16,13.0,20.0,94,0.00,,,0.27,124.000000,,2013-04-21 23:43:00,
2013-04-21 17:52:00,35.0,33.0,-100.00,NNE,16,13.0,20.0,94,0.00,,,0.27,124.000000,,2013-04-21 23:52:00,
2013-04-21 18:01:00,35.0,33.0,-100.00,NNE,16,13.0,20.0,94,0.00,,,0.27,124.000000,,2013-04-22 00:01:00,
2013-04-21 18:11:00,35.0,33.0,-100.00,NNE,16,13.0,20.0,94,0.00,,,0.27,124.000000,,2013-04-22 00:11:00,
2013-04-21 19:42:00,32.0,31.0,-100.00,NNE,22,4.0,12.0,97,-99.99,,,0.29,6.000000,,2013-04-22 01:42:00,
2013-04-21 19:52:00,32.0,31.0,-100.00,NNE,22,4.0,12.0,97,-99.99,,,0.29,6.000000,,2013-04-22 01:52:00,
2013-04-21 20:02:00,32.0,31.0,-100.00,NNE,22,4.0,12.0,97,-99.99,,,0.29,6.000000,,2013-04-22 02:02:00,
2013-04-21 20:11:00,32.0,31.0,-100.00,NNE,22,4.0,12.0,97,-99.99,,,0.29,6.000000,,2013-04-22 02:11:00,
2013-04-21 20:32:00,32.0,32.0,-100.00,NNE,13,9.0,12.0,98,0.00,,,0.29,2.000000,,2013-04-22 02:32:00,
2013-04-21 20:42:00,32.0,32.0,-100.00,NNE,13,9.0,12.0,98,0.00,,,0.29,2.000000,,2013-04-22 02:42:00,
2013-04-21 20:52:00,32.0,32.0,-100.00,NNE,13,9.0,12.0,98,0.00,,,0.29,2.000000,,2013-04-22 02:52:00,
2013-04-21 21:02:00,32.0,32.0,-100.00,NNE,13,9.0,12.0,98,0.00,,,0.29,2.000000,,2013-04-22 03:02:00,
2013-04-21 21:11:00,32.0,32.0,-100.00,NNE,13,9.0,12.0,98,0.00,,,0.29,2.000000,,2013-04-22 03:11:00,
2013-04-21 21:33:00,32.0,32.0,-100.00,North,0,8.0,13.0,98,0.00,,,0.29,0.000000,,2013-04-22 03:33:00,
2013-04-21 21:43:00,32.0,32.0,-100.00,North,0,8.0,13.0,98,0.00,,,0.29,0.000000,,2013-04-22 03:43:00,
2013-04-21 21:52:00,32.0,32.0,-100.00,North,0,8.0,13.0,98,0.00,,,0.29,0.000000,,2013-04-22 03:52:00,
2013-04-21 22:03:00,32.0,32.0,-100.00,North,0,8.0,13.0,98,0.00,,,0.29,0.000000,,2013-04-22 04:03:00,
2013-04-21 22:12:00,32.0,32.0,-100.00,North,0,8.0,13.0,98,0.00,,,0.29,0.000000,,2013-04-22 04:12:00,
2013-04-21 22:33:00,32.0,32.0,-100.00,NNE,18,7.0,11.0,98,0.00,,,0.29,0.000000,,2013-04-22 04:33:00,
2013-04-21 22:43:00,32.0,32.0,-100.00,NNE,18,7.0,11.0,98,0.00,,,0.29,0.000000,,2013-04-22 04:43:00,
2013-04-21 22:53:00,32.0,32.0,-100.00,NNE,18,7.0,11.0,98,0.00,,,0.29,0.000000,,2013-04-22 04:53:00,
2013-04-21 23:02:00,32.0,32.0,-100.00,NNE,18,7.0,11.0,98,0.00,,,0.29,0.000000,,2013-04-22 05:02:00,
2013-04-21 23:12:00,32.0,32.0,-100.00,NNE,18,7.0,11.0,98,0.00,,,0.29,0.000000,,2013-04-22 05:12:00,
2013-04-21 23:42:00,32.0,32.0,-100.00,North,3,6.0,12.0,98,0.00,,,0.29,0.000000,,2013-04-22 05:42:00,
2013-04-21 23:52:00,32.0,32.0,-100.00,North,3,6.0,12.0,98,0.00,,,0.29,0.000000,,2013-04-22 05:52:00,